WET,Max TemperatureF,Mean TemperatureF,Min TemperatureF,Max Dew PointF,MeanDew PointF,Min DewpointF,Max Humidity, Mean Humidity, Min Humidity, Max Sea Level PressureIn, Mean Sea Level PressureIn, Min Sea Level PressureIn, Max VisibilityMiles, Mean VisibilityMiles, Min VisibilityMiles, Max Wind SpeedMPH, Mean Wind SpeedMPH, Max Gust SpeedMPH,PrecipitationIn, CloudCover, Events, WindDirDegrees
2011-10-1,77,68,59,68,65,57,100,84,69,30.04,29.95,29.92,4,2,0,12,4,17,0.00,4,Fog,280
2011-10-2,84,73,62,68,64,59,100,77,51,30.09,30.03,29.98,4,3,0,13,5,,0.00,4,Fog,39
2011-10-3,78,71,64,70,67,63,100,83,61,30.21,30.15,30.09,4,3,0,20,10,,0.00,5,Fog,238
2011-10-4,86,73,60,70,65,59,100,81,48,30.15,30.09,30.04,5,3,1,13,4,,0.00,4,,41
2011-10-5,91,73,55,61,52,43,100,60,20,30.06,30.02,29.98,5,4,0,18,4,,0.00,2,Fog,50
2011-10-6,89,74,59,59,51,37,88,50,19,30.09,30.05,30.01,5,4,3,16,6,,0.00,1,,49
2011-10-7,80,65,50,66,58,48,100,79,34,30.12,30.07,30.04,5,4,3,12,5,,0.00,2,,243
2011-10-8,77,66,55,64,61,55,100,87,57,30.09,30.05,30.01,5,3,1,14,4,,0.00,4,,152
2011-10-9,77,66,55,64,59,54,100,81,54,30.09,30.05,30.01,4,3,1,8,4,,0.00,3,,199
2011-10-10,82,68,53,64,57,52,100,79,48,30.18,30.12,30.06,4,3,2,8,3,,0.00,3,,116
2011-10-11,77,64,51,66,58,50,100,80,47,30.21,30.16,30.12,4,3,2,10,3,,0.00,3,,253
2011-10-12,77,65,53,68,62,52,100,88,65,30.15,30.09,30.04,4,2,0,10,4,,0.00,4,Fog,343
2011-10-13,77,68,59,68,63,57,100,85,54,30.09,30.04,30.01,4,2,0,9,4,,0.00,4,Fog,238
2011-10-14,87,73,59,66,62,57,100,83,46,30.04,30.01,29.98,4,3,1,9,4,,0.00,4,,237
2011-10-15,75,67,57,66,63,55,100,86,65,30.06,30.02,29.98,4,2,0,9,4,,0.00,4,Fog,226
2011-10-16,80,66,51,66,59,50,100,83,51,30.06,30.03,30.01,5,3,0,8,4,,0.00,3,Fog,181
2011-10-17,78,66,55,64,61,54,100,83,57,30.04,30.01,29.98,3,2,0,8,3,,0.00,4,Fog,251
2011-10-18,75,67,57,64,62,55,100,88,61,30.06,30.03,29.98,3,2,0,10,4,,0.00,3,Fog,173
2011-10-19,75,64,53,66,60,52,100,88,65,30.09,30.06,30.04,5,2,0,9,4,,0.00,3,Fog,201
2011-10-20,75,66,57,63,60,55,100,85,61,30.09,30.03,29.98,5,3,1,10,5,,0.00,2,,223
2011-10-21,73,66,59,63,60,54,100,80,56,29.98,29.94,29.89,5,3,0,12,5,,0.00,4,Fog-Rain,193
2011-10-22,77,68,59,63,58,52,94,77,44,29.98,29.92,29.89,5,5,3,14,6,,0.00,3,Rain,72
2011-10-23,73,66,60,64,60,54,94,81,53,30.01,29.95,29.86,5,4,3,10,6,,0.00,4,Rain-Thunderstorm,215
2011-10-24,71,66,62,63,59,54,94,82,53,29.86,29.76,29.68,5,4,2,29,14,40,0.00,6,Rain,215
2011-10-25,71,63,53,59,56,52,94,83,53,29.95,29.90,29.77,5,4,3,8,3,,0.00,5,Rain,131
2011-10-26,75,64,53,59,54,50,100,74,47,29.95,29.91,29.89,5,4,3,15,5,,0.00,4,,207
2011-10-27,71,65,59,63,57,52,94,75,53,30.09,29.95,29.83,5,4,2,21,13,,0.00,3,Rain-Thunderstorm,255
2011-10-28,69,62,55,59,55,50,94,78,52,30.12,30.09,30.04,5,5,4,9,5,,0.00,4,,267
2011-10-29,69,61,53,57,54,50,94,81,56,30.15,30.11,30.09,5,5,3,10,5,,0.00,3,,82
2011-10-30,75,63,51,63,56,50,100,84,50,30.12,30.05,30.01,5,3,1,12,4,,0.00,5,,81
2011-10-31,73,63,53,64,58,52,94,85,50,30.04,30.01,29.98,5,3,1,9,4,,0.00,5,,205